CSN831 ZGGG-ZSAM

Flight info

Callsign CSN831
Flight time 0h 51m
Altitude 26600
Route LMN9 LMN G471 XEBUL DCT NUVGA DCT VETIB W155 TEBON TEBON8X
Aircraft A21N/M-SDE3FGHIRWY/LB1

Departure

Time 2026-04-29 13:22
Airport Guangzhou Baiyun International Airport (ZGGG)

Arrival

Time 2026-04-29 14:14
Airport Xiamen Gaoqi International Airport (ZSAM)
Time Latitude Longitude Altitude Speed Heading
2026-04-29 12:46 23.40212 113.30638 46 ft 0 kts 194°
2026-04-29 13:08 23.40211 113.30638 46 ft 0 kts 194°
2026-04-29 13:08 23.40223 113.30641 46 ft 2 kts 194°
2026-04-29 13:08 23.40236 113.30644 46 ft 0 kts 194°
2026-04-29 13:08 23.40247 113.30647 47 ft 2 kts 175°
2026-04-29 13:09 23.40261 113.30642 47 ft 2 kts 147°
2026-04-29 13:09 23.40272 113.30630 47 ft 2 kts 118°
2026-04-29 13:09 23.40275 113.30622 46 ft 1 kts 103°
2026-04-29 13:09 23.40276 113.30616 46 ft 0 kts 103°
2026-04-29 13:12 23.40276 113.30617 46 ft 0 kts 103°
2026-04-29 13:12 23.40275 113.30621 46 ft 1 kts 104°
2026-04-29 13:12 23.40270 113.30643 47 ft 4 kts 103°
2026-04-29 13:13 23.40260 113.30688 48 ft 8 kts 103°
2026-04-29 13:13 23.40243 113.30763 49 ft 12 kts 103°
2026-04-29 13:13 23.40189 113.30840 50 ft 16 kts 176°
2026-04-29 13:13 23.40062 113.30804 47 ft 20 kts 193°
2026-04-29 13:14 23.39908 113.30763 43 ft 24 kts 193°
2026-04-29 13:14 23.39740 113.30718 43 ft 24 kts 194°
2026-04-29 13:14 23.39570 113.30671 41 ft 25 kts 194°
2026-04-29 13:14 23.39391 113.30624 40 ft 23 kts 195°
2026-04-29 13:15 23.39285 113.30594 39 ft 13 kts 194°
2026-04-29 13:15 23.39214 113.30645 39 ft 13 kts 122°
2026-04-29 13:15 23.39121 113.30652 40 ft 14 kts 193°
2026-04-29 13:15 23.39014 113.30622 40 ft 16 kts 194°
2026-04-29 13:16 23.38897 113.30591 39 ft 18 kts 193°
2026-04-29 13:16 23.38771 113.30557 39 ft 19 kts 195°
2026-04-29 13:16 23.38636 113.30520 39 ft 20 kts 194°
2026-04-29 13:16 23.38487 113.30479 36 ft 22 kts 194°
2026-04-29 13:17 23.38330 113.30437 36 ft 23 kts 193°
2026-04-29 13:17 23.38170 113.30394 36 ft 23 kts 194°
2026-04-29 13:17 23.38006 113.30351 36 ft 24 kts 193°
2026-04-29 13:17 23.37840 113.30306 36 ft 24 kts 195°
2026-04-29 13:18 23.37707 113.30268 36 ft 19 kts 194°
2026-04-29 13:18 23.37629 113.30295 36 ft 13 kts 104°
2026-04-29 13:18 23.37607 113.30399 36 ft 14 kts 102°
2026-04-29 13:18 23.37580 113.30513 37 ft 15 kts 104°
2026-04-29 13:19 23.37555 113.30624 39 ft 15 kts 104°
2026-04-29 13:19 23.37507 113.30717 40 ft 14 kts 176°
2026-04-29 13:19 23.37396 113.30692 40 ft 17 kts 193°
2026-04-29 13:19 23.37275 113.30660 39 ft 18 kts 193°
2026-04-29 13:20 23.37141 113.30624 38 ft 20 kts 193°
2026-04-29 13:20 23.37018 113.30597 37 ft 13 kts 163°
2026-04-29 13:20 23.36988 113.30660 36 ft 8 kts 102°
2026-04-29 13:20 23.36975 113.30730 37 ft 9 kts 101°
2026-04-29 13:21 23.37002 113.30786 39 ft 9 kts 12°
2026-04-29 13:21 23.37048 113.30797 40 ft 0 kts 14°
2026-04-29 13:21 23.37123 113.30817 40 ft 38 kts 14°
2026-04-29 13:21 23.37617 113.30949 45 ft 105 kts 13°
2026-04-29 13:22 23.38510 113.31190 41 ft 159 kts 13°
2026-04-29 13:22 23.39611 113.31490 541 ft 164 kts 14°
2026-04-29 13:22 23.40732 113.31828 1175 ft 169 kts 17°
2026-04-29 13:22 23.41881 113.32191 1725 ft 179 kts 16°
2026-04-29 13:23 23.43138 113.32591 1996 ft 198 kts 15°
2026-04-29 13:23 23.44583 113.32954 2065 ft 220 kts 13°
2026-04-29 13:23 23.46083 113.33294 2297 ft 220 kts 13°
2026-04-29 13:23 23.47578 113.33660 2535 ft 221 kts 14°
2026-04-29 13:24 23.49117 113.34052 3004 ft 229 kts 14°
2026-04-29 13:24 23.50642 113.34454 3801 ft 228 kts 14°
2026-04-29 13:24 23.52204 113.34873 4472 ft 233 kts 14°
2026-04-29 13:24 23.53801 113.35304 5099 ft 241 kts 13°
2026-04-29 13:25 23.55430 113.35739 5736 ft 247 kts 11°
2026-04-29 13:25 23.58912 113.36435 7041 ft 260 kts
2026-04-29 13:25 23.60682 113.36775 7722 ft 265 kts
2026-04-29 13:26 23.62393 113.37555 8077 ft 273 kts 36°
2026-04-29 13:26 23.63583 113.39226 8346 ft 291 kts 67°
2026-04-29 13:26 23.64124 113.41413 8609 ft 304 kts 78°
2026-04-29 13:26 23.64547 113.43699 8841 ft 309 kts 78°
2026-04-29 13:27 23.64979 113.46001 9091 ft 311 kts 78°
2026-04-29 13:27 23.65435 113.48312 9339 ft 314 kts 77°
2026-04-29 13:27 23.65910 113.50619 9585 ft 316 kts 77°
2026-04-29 13:27 23.66404 113.52979 9840 ft 318 kts 77°
2026-04-29 13:28 23.66900 113.55334 10078 ft 320 kts 77°
2026-04-29 13:28 23.67398 113.57745 10324 ft 336 kts 79°
2026-04-29 13:28 23.67725 113.60340 10580 ft 353 kts 86°
2026-04-29 13:28 23.67760 113.63026 10828 ft 359 kts 92°
2026-04-29 13:29 23.67661 113.65757 11068 ft 362 kts 94°
2026-04-29 13:29 23.67534 113.68501 11317 ft 364 kts 94°
2026-04-29 13:29 23.67404 113.71308 11714 ft 370 kts 94°
2026-04-29 13:29 23.67282 113.74094 12342 ft 371 kts 94°
2026-04-29 13:30 23.67162 113.76918 12922 ft 374 kts 94°
2026-04-29 13:30 23.67045 113.79735 13446 ft 378 kts 94°
2026-04-29 13:30 23.66928 113.82603 13956 ft 381 kts 93°
2026-04-29 13:30 23.66813 113.85475 14462 ft 384 kts 93°
2026-04-29 13:31 23.66693 113.88409 14978 ft 387 kts 93°
2026-04-29 13:31 23.66574 113.91331 15446 ft 390 kts 93°
2026-04-29 13:31 23.66454 113.94275 15930 ft 393 kts 93°
2026-04-29 13:31 23.66330 113.97282 16400 ft 395 kts 93°
2026-04-29 13:32 23.66206 114.00274 16841 ft 398 kts 93°
2026-04-29 13:32 23.66082 114.03272 17257 ft 401 kts 93°
2026-04-29 13:32 23.65954 114.06314 17690 ft 404 kts 93°
2026-04-29 13:32 23.65825 114.09376 18121 ft 406 kts 93°
2026-04-29 13:33 23.65696 114.12480 18503 ft 409 kts 93°
2026-04-29 13:33 23.65565 114.15576 18875 ft 413 kts 93°
2026-04-29 13:33 23.65432 114.18697 19276 ft 415 kts 93°
2026-04-29 13:33 23.65298 114.21853 19665 ft 417 kts 93°
2026-04-29 13:34 23.65162 114.25002 20033 ft 420 kts 93°
2026-04-29 13:34 23.65031 114.28181 20397 ft 422 kts 92°
2026-04-29 13:34 23.65363 114.31341 20691 ft 425 kts 71°
2026-04-29 13:34 23.66738 114.34145 21045 ft 420 kts 47°
2026-04-29 13:35 23.68895 114.36246 21439 ft 414 kts 33°
2026-04-29 13:35 23.71254 114.38107 21758 ft 417 kts 31°
2026-04-29 13:35 23.73601 114.39943 22054 ft 421 kts 32°
2026-04-29 13:35 23.75975 114.41825 22401 ft 423 kts 32°
2026-04-29 13:36 23.78358 114.43743 22855 ft 422 kts 32°
2026-04-29 13:36 23.80699 114.45647 23297 ft 421 kts 32°
2026-04-29 13:36 23.83049 114.47567 23738 ft 420 kts 32°
2026-04-29 13:36 23.85381 114.49480 24173 ft 420 kts 32°
2026-04-29 13:37 23.87703 114.51387 24602 ft 420 kts 32°
2026-04-29 13:37 23.90032 114.53302 25017 ft 420 kts 32°
2026-04-29 13:37 23.92382 114.55236 25398 ft 421 kts 33°
2026-04-29 13:37 23.94728 114.57168 25737 ft 423 kts 33°
2026-04-29 13:38 23.97076 114.59102 26062 ft 426 kts 33°
2026-04-29 13:38 23.99432 114.61043 26404 ft 428 kts 33°
2026-04-29 13:38 24.01833 114.63025 26641 ft 431 kts 33°
2026-04-29 13:38 24.04218 114.64993 26660 ft 432 kts 33°
2026-04-29 13:39 24.06601 114.66971 26668 ft 432 kts 33°
2026-04-29 13:39 24.09008 114.68977 26670 ft 431 kts 33°
2026-04-29 13:39 24.11416 114.70976 26673 ft 431 kts 33°
2026-04-29 13:39 24.13794 114.72938 26671 ft 431 kts 33°
2026-04-29 13:40 24.16194 114.74919 26673 ft 431 kts 33°
2026-04-29 13:40 24.18595 114.76904 26676 ft 431 kts 33°
2026-04-29 13:40 24.20982 114.78880 26676 ft 431 kts 33°
2026-04-29 13:40 24.23363 114.80853 26678 ft 432 kts 33°
2026-04-29 13:41 24.25718 114.82916 26665 ft 436 kts 41°
2026-04-29 13:41 24.27475 114.85617 26663 ft 438 kts 65°
2026-04-29 13:41 24.28218 114.88847 26671 ft 437 kts 89°
2026-04-29 13:41 24.28066 114.92140 26689 ft 435 kts 98°
2026-04-29 13:42 24.27701 114.95393 26680 ft 435 kts 99°
2026-04-29 13:42 24.27315 114.98711 26679 ft 435 kts 99°
2026-04-29 13:42 24.26966 115.01991 26682 ft 436 kts 98°
2026-04-29 13:42 24.26643 115.05293 26680 ft 435 kts 98°
2026-04-29 13:43 24.26342 115.08585 26677 ft 436 kts 97°
2026-04-29 13:43 24.26051 115.11852 26674 ft 436 kts 97°
2026-04-29 13:43 24.25759 115.15186 26678 ft 436 kts 97°
2026-04-29 13:43 24.25475 115.18462 26675 ft 437 kts 97°
2026-04-29 13:44 24.25188 115.21762 26673 ft 436 kts 97°
2026-04-29 13:44 24.24900 115.25062 26675 ft 435 kts 97°
2026-04-29 13:44 24.24611 115.28352 26675 ft 436 kts 97°
2026-04-29 13:44 24.24321 115.31671 26672 ft 436 kts 97°
2026-04-29 13:45 24.24029 115.34974 26671 ft 436 kts 97°
2026-04-29 13:45 24.23741 115.38223 26672 ft 435 kts 97°
2026-04-29 13:45 24.23447 115.41544 26669 ft 435 kts 97°
2026-04-29 13:45 24.23158 115.44842 26670 ft 436 kts 97°
2026-04-29 13:46 24.22912 115.48139 26667 ft 436 kts 96°
2026-04-29 13:46 24.22690 115.51436 26666 ft 436 kts 95°
2026-04-29 13:46 24.22470 115.54744 26663 ft 436 kts 95°
2026-04-29 13:46 24.22247 115.58027 26664 ft 436 kts 96°
2026-04-29 13:47 24.22023 115.61311 26661 ft 435 kts 96°
2026-04-29 13:47 24.21790 115.64641 26662 ft 434 kts 96°
2026-04-29 13:47 24.21562 115.67894 26661 ft 434 kts 96°
2026-04-29 13:47 24.21328 115.71208 26660 ft 434 kts 96°
2026-04-29 13:48 24.21095 115.74500 26657 ft 435 kts 96°
2026-04-29 13:48 24.20858 115.77801 26656 ft 435 kts 96°
2026-04-29 13:48 24.20626 115.81049 26655 ft 434 kts 96°
2026-04-29 13:48 24.20388 115.84383 26654 ft 435 kts 96°
2026-04-29 13:49 24.20153 115.87646 26651 ft 434 kts 96°
2026-04-29 13:49 24.19916 115.90942 26654 ft 434 kts 96°
2026-04-29 13:49 24.19677 115.94230 26653 ft 434 kts 96°
2026-04-29 13:49 24.19439 115.97511 26653 ft 434 kts 96°
2026-04-29 13:50 24.19201 116.00784 26648 ft 433 kts 96°
2026-04-29 13:50 24.18959 116.04095 26647 ft 433 kts 96°
2026-04-29 13:50 24.18720 116.07364 26648 ft 433 kts 96°
2026-04-29 13:50 24.18478 116.10650 26647 ft 433 kts 96°
2026-04-29 13:51 24.18235 116.13921 26640 ft 432 kts 96°
2026-04-29 13:51 24.17994 116.17162 26640 ft 432 kts 96°
2026-04-29 13:51 24.17750 116.20443 26642 ft 433 kts 96°
2026-04-29 13:51 24.17506 116.23747 26440 ft 433 kts 96°
2026-04-29 13:52 24.17263 116.26985 26197 ft 430 kts 96°
2026-04-29 13:52 24.17016 116.30241 25946 ft 427 kts 96°
2026-04-29 13:52 24.16775 116.33437 25696 ft 424 kts 96°
2026-04-29 13:52 24.16533 116.36652 25445 ft 422 kts 96°
2026-04-29 13:53 24.16291 116.39852 25196 ft 421 kts 96°
2026-04-29 13:53 24.16052 116.43040 24950 ft 422 kts 95°
2026-04-29 13:53 24.15895 116.46217 24695 ft 422 kts 94°
2026-04-29 13:53 24.15769 116.49443 24399 ft 423 kts 94°
2026-04-29 13:54 24.15649 116.52657 24023 ft 424 kts 93°
2026-04-29 13:54 24.15526 116.55867 23544 ft 425 kts 93°
2026-04-29 13:54 24.15401 116.59093 23011 ft 426 kts 94°
2026-04-29 13:54 24.15271 116.62313 22444 ft 428 kts 93°
2026-04-29 13:55 24.15140 116.65574 21898 ft 430 kts 94°
2026-04-29 13:55 24.15008 116.68848 21292 ft 433 kts 94°
2026-04-29 13:55 24.14874 116.72128 20742 ft 433 kts 94°
2026-04-29 13:55 24.14741 116.75379 20297 ft 430 kts 94°
2026-04-29 13:56 24.14605 116.78642 19850 ft 427 kts 94°
2026-04-29 13:56 24.14472 116.81851 19402 ft 424 kts 94°
2026-04-29 13:56 24.14337 116.85073 18939 ft 421 kts 94°
2026-04-29 13:56 24.14269 116.88265 18476 ft 419 kts 91°
2026-04-29 13:57 24.14249 116.91418 18020 ft 416 kts 91°
2026-04-29 13:57 24.14236 116.94559 17575 ft 413 kts 91°
2026-04-29 13:57 24.14224 116.97691 17135 ft 410 kts 91°
2026-04-29 13:57 24.14211 117.00798 16668 ft 408 kts 91°
2026-04-29 13:58 24.14195 117.03893 16203 ft 406 kts 91°
2026-04-29 13:58 24.14175 117.06972 15721 ft 404 kts 91°
2026-04-29 13:58 24.14155 117.10024 15262 ft 402 kts 91°
2026-04-29 13:58 24.14133 117.13084 14784 ft 400 kts 91°
2026-04-29 13:59 24.14112 117.16078 14316 ft 398 kts 91°
2026-04-29 13:59 24.14089 117.19082 13853 ft 395 kts 91°
2026-04-29 13:59 24.14065 117.22112 13365 ft 393 kts 91°
2026-04-29 13:59 24.14041 117.25062 12910 ft 391 kts 91°
2026-04-29 14:00 24.14017 117.28014 12455 ft 388 kts 91°
2026-04-29 14:00 24.13993 117.30965 12008 ft 385 kts 91°
2026-04-29 14:00 24.13968 117.33879 11556 ft 382 kts 92°
2026-04-29 14:00 24.13942 117.36768 11092 ft 380 kts 92°
2026-04-29 14:01 24.13914 117.39654 10665 ft 377 kts 92°
2026-04-29 14:01 24.13887 117.42497 10258 ft 373 kts 91°
2026-04-29 14:01 24.13863 117.45269 10137 ft 360 kts 92°
2026-04-29 14:01 24.13845 117.47962 10067 ft 345 kts 90°
2026-04-29 14:02 24.14278 117.50498 9811 ft 336 kts 64°
2026-04-29 14:02 24.15590 117.52521 9527 ft 326 kts 45°
2026-04-29 14:02 24.17146 117.54311 9159 ft 323 kts 43°
2026-04-29 14:02 24.18698 117.56059 8831 ft 319 kts 43°
2026-04-29 14:03 24.20222 117.57805 8510 ft 316 kts 44°
2026-04-29 14:03 24.21715 117.59545 8190 ft 312 kts 44°
2026-04-29 14:03 24.23182 117.61278 7893 ft 307 kts 45°
2026-04-29 14:03 24.24614 117.62983 7594 ft 302 kts 45°
2026-04-29 14:04 24.26041 117.64689 7279 ft 299 kts 46°
2026-04-29 14:04 24.27422 117.66351 6974 ft 295 kts 46°
2026-04-29 14:04 24.28783 117.67999 6674 ft 291 kts 46°
2026-04-29 14:04 24.30142 117.69640 6366 ft 287 kts 47°
2026-04-29 14:05 24.31477 117.71251 6079 ft 283 kts 47°
2026-04-29 14:05 24.32785 117.72827 5786 ft 280 kts 46°
2026-04-29 14:05 24.34082 117.74388 5479 ft 276 kts 46°
2026-04-29 14:05 24.35379 117.75945 5201 ft 272 kts 47°
2026-04-29 14:06 24.36614 117.77432 5171 ft 257 kts 47°
2026-04-29 14:06 24.37803 117.78861 5119 ft 249 kts 47°
2026-04-29 14:06 24.38948 117.80240 5062 ft 241 kts 48°
2026-04-29 14:06 24.39815 117.81762 4880 ft 233 kts 75°
2026-04-29 14:07 24.40044 117.83501 4635 ft 229 kts 86°
2026-04-29 14:07 24.40144 117.85219 4368 ft 226 kts 86°
2026-04-29 14:07 24.40239 117.86923 4104 ft 224 kts 86°
2026-04-29 14:07 24.40348 117.88630 3853 ft 219 kts 85°
2026-04-29 14:08 24.40459 117.90236 3688 ft 209 kts 85°
2026-04-29 14:08 24.40574 117.91809 3370 ft 205 kts 83°
2026-04-29 14:08 24.40917 117.93333 2964 ft 204 kts 68°
2026-04-29 14:08 24.41561 117.94675 2753 ft 193 kts 57°
2026-04-29 14:09 24.42303 117.95812 2665 ft 176 kts 52°
2026-04-29 14:09 24.43022 117.96810 2677 ft 153 kts 51°
2026-04-29 14:09 24.43661 117.97691 2651 ft 145 kts 51°
2026-04-29 14:09 24.44287 117.98559 2624 ft 144 kts 52°
2026-04-29 14:10 24.44905 117.99423 2539 ft 144 kts 52°
2026-04-29 14:10 24.45521 118.00287 2446 ft 143 kts 52°
2026-04-29 14:10 24.46132 118.01147 2353 ft 143 kts 52°
2026-04-29 14:10 24.46745 118.02010 2186 ft 143 kts 52°
2026-04-29 14:11 24.47352 118.02862 2006 ft 142 kts 52°
2026-04-29 14:11 24.47968 118.03728 1823 ft 142 kts 51°
2026-04-29 14:11 24.48568 118.04571 1643 ft 142 kts 51°
2026-04-29 14:11 24.49176 118.05424 1448 ft 141 kts 51°
2026-04-29 14:12 24.49785 118.06276 1259 ft 141 kts 52°
2026-04-29 14:12 24.50388 118.07121 1074 ft 140 kts 52°
2026-04-29 14:12 24.50986 118.07958 892 ft 140 kts 52°
2026-04-29 14:12 24.51584 118.08792 691 ft 140 kts 52°
2026-04-29 14:13 24.52189 118.09619 510 ft 139 kts 53°
2026-04-29 14:13 24.52776 118.10462 339 ft 139 kts 54°
2026-04-29 14:13 24.53379 118.11298 160 ft 137 kts 54°
2026-04-29 14:13 24.53933 118.12098 72 ft 121 kts 50°
2026-04-29 14:14 24.54352 118.12680 71 ft 72 kts 51°
2026-04-29 14:14 24.54559 118.12970 71 ft 29 kts 52°
2026-04-29 14:14 24.54667 118.13131 71 ft 24 kts 61°
2026-04-29 14:14 24.54712 118.13307 71 ft 20 kts 81°
2026-04-29 14:15 24.54731 118.13457 71 ft 14 kts 81°
2026-04-29 14:15 24.54769 118.13557 71 ft 14 kts 51°
2026-04-29 14:15 24.54834 118.13648 71 ft 15 kts 52°
2026-04-29 14:15 24.54867 118.13741 71 ft 12 kts 123°
2026-04-29 14:16 24.54808 118.13794 71 ft 8 kts 143°
2026-04-29 14:16 24.54790 118.13827 71 ft 6 kts 79°
2026-04-29 14:16 24.54806 118.13863 71 ft 4 kts 67°
2026-04-29 14:16 24.54809 118.13879 71 ft 2 kts 76°
2026-04-29 14:17 24.54816 118.13907 71 ft 3 kts 76°
2026-04-29 14:17 24.54816 118.13910 71 ft 0 kts 77°